Wind_Speed
22 26 26 26 25 22 22 24 26 26 26 23 20 15 14 12 12 11 8 7 7 6 7 10 11 13 14 13 13 18 19 24
23 29 28 27 26 27 28 28 26 27 26 23 19 17 13 11 9 8 8 7 5 5 6 8 10 13 14 13 13 16 21 10
22 27 33 33 31 28 27 27 26 24 23 21 17 16 12 11 9 8 6 6 6 6 7 8 9 10 12 13 11 12 17 17
18 25 31 33 31 30 28 28 26 24 23 21 21 16 16 15 10 8 8 7 8 6 7 7 8 9 12 12 11 11 9 15
23 25 26 35 32 30 29 28 27 25 24 25 26 26 21 16 12 11 9 6 7 6 6 6 7 8 9 10 10 11 9 9
19 27 31 36 33 31 30 27 25 23 28 29 26 23 19 17 15 13 10 9 5 6 5 5 6 6 7 7 8 9 9 10
25 30 31 34 33 30 29 27 24 31 27 25 24 22 22 23 21 18 14 10 7 4 4 5 5 5 5 5 6 6 7 8
17 22 25 30 37 35 32 29 30 29 27 23 25 25 27 28 24 21 19 16 12 7 6 5 4 4 5 5 5 4 5 5
18 27 30 32 37 37 34 35 32 28 28 26 25 27 30 27 25 24 20 16 11 8 8 6 5 4 4 5 5 3 3 4
19 26 30 31 35 40 37 36 33 31 28 25 25 27 28 26 24 23 21 17 13 10 9 7 6 4 3 4 6 4 2 2
16 24 29 31 37 41 40 38 35 35 31 28 27 27 26 24 22 22 19 15 13 11 10 8 7 5 3 4 4 3 3 2
18 25 29 33 36 39 44 42 39 38 36 33 31 27 25 25 23 20 19 17 15 13 11 9 10 8 6 4 4 5 3 2
18 26 29 30 34 37 42 45 43 43 40 38 35 31 28 25 22 19 18 17 16 14 13 12 12 10 8 6 6 6 5 3
16 19 25 30 33 35 38 42 43 42 43 41 37 34 31 27 24 21 19 18 16 15 14 13 13 12 9 8 9 8 6 4
18 15 24 31 33 35 36 36 41 42 44 44 40 36 33 28 25 22 20 20 19 17 15 14 14 12 10 11 11 10 8 6
17 17 18 27 28 28 29 33 42 42 44 44 42 37 32 28 25 25 23 22 21 18 17 16 15 14 12 13 12 12 9 8
10 10 15 21 29 31 31 36 41 42 43 44 40 36 33 30 29 27 26 25 23 21 20 18 16 15 14 12 13 12 9 8
1 10 20 25 29 34 35 41 41 42 41 41 40 38 36 33 31 30 31 28 26 25 21 19 18 16 16 14 14 13 10 8
3 1 12 21 27 30 29 35 40 40 39 41 40 38 37 34 33 34 32 30 29 27 23 21 19 18 17 17 16 15 12 9
Wind_Direction
164 157 158 155 155 158 156 150 146 143 139 136 129 123 116 106 97 96 96 80 68 62 68 57 48 55 58 54 49 45 57 97
161 163 163 165 167 163 158 153 153 152 149 148 144 136 133 120 114 115 103 83 77 85 79 64 57 58 57 57 57 51 53 108
153 158 164 167 169 170 168 166 168 167 168 162 155 146 142 135 128 119 104 89 91 106 94 79 70 68 66 63 66 65 58 53
161 165 168 171 174 176 175 170 169 170 170 167 159 155 154 146 144 125 110 96 104 108 102 90 79 73 73 68 67 67 77 64
167 171 172 175 181 182 178 176 178 179 189 185 177 172 170 173 162 148 127 104 107 121 117 101 92 86 86 78 72 78 78 78
176 176 177 182 182 186 184 184 190 197 188 189 189 186 187 179 173 159 159 147 131 129 124 110 100 97 96 93 83 81 81 85
182 180 177 182 186 189 189 191 197 187 192 198 198 196 189 183 179 173 170 167 163 165 156 134 113 109 122 106 91 72 81 87
184 174 178 180 187 193 196 195 192 196 200 201 206 208 198 191 187 184 180 182 182 186 187 162 140 124 133 131 120 87 77 84
186 182 182 184 188 194 198 200 198 201 204 211 203 194 191 190 194 196 199 198 197 199 192 179 159 142 143 148 141 109 77 94
187 187 185 186 189 194 198 199 201 202 204 193 187 188 189 188 189 196 200 197 196 198 192 185 182 170 152 171 155 150 121 107
188 189 188 189 192 195 197 199 202 201 203 200 195 193 196 200 193 191 194 201 204 197 195 192 196 202 205 196 191 181 175 151
190 192 193 191 193 194 198 201 203 202 202 198 196 196 200 202 205 208 211 206 210 210 204 199 203 213 223 220 208 187 209 194
192 192 191 190 193 194 196 200 204 205 201 195 198 201 201 202 207 211 207 211 209 210 208 207 203 208 226 235 210 223 232 247
197 190 193 194 195 195 196 200 203 205 200 195 195 196 200 205 211 209 214 215 212 209 212 212 210 214 229 232 225 230 244 273
195 196 198 200 199 197 197 198 202 202 199 196 195 198 203 206 208 209 211 219 215 216 217 218 221 224 232 226 232 227 250 297
202 201 199 201 200 199 196 195 201 201 196 196 201 204 205 205 205 208 215 218 222 224 221 222 226 230 227 231 242 244 259 295
198 200 200 196 195 194 190 194 198 199 195 197 201 204 203 206 207 207 215 216 220 222 224 227 231 230 229 236 240 239 261 288
291 207 194 198 197 192 189 196 196 195 194 199 205 206 205 209 209 210 212 215 218 223 226 227 232 231 230 237 237 245 253 274
53 340 211 200 193 190 189 193 195 192 194 202 208 209 210 212 211 212 215 216 220 223 226 227 230 235 234 233 234 241 246 262
Height
855 857 861 866 870 872 873 874 876 877 879 882 881 885 884 885 886 885 887 887 887 885 885 885 885 884 883 883 882 882 881 881
855 857 861 864 868 871 872 875 878 877 878 881 882 882 886 886 887 887 886 887 888 888 887 887 886 886 886 885 884 883 883 883
854 856 859 862 866 869 872 873 877 877 878 879 882 884 887 888 888 890 889 887 888 889 889 889 889 888 887 886 885 884 885 884
851 855 856 859 864 867 870 871 875 877 878 881 883 884 887 887 890 889 889 889 888 890 890 890 890 889 888 888 887 887 886 886
846 850 854 856 861 865 867 870 872 875 877 878 878 879 884 887 888 889 890 890 889 889 889 889 889 889 889 889 889 888 888 888
839 842 847 852 857 861 864 867 870 872 874 875 876 879 882 885 888 888 889 890 889 889 889 889 890 890 890 890 889 889 889 890
835 838 843 848 853 858 861 864 867 870 873 874 874 876 879 883 885 886 887 888 889 889 888 888 889 890 890 890 891 891 891 891
832 834 840 842 847 853 858 860 863 866 869 870 871 872 876 878 880 882 884 885 886 886 887 888 888 889 889 889 890 891 892 892
824 827 831 836 841 847 852 856 859 862 866 866 868 870 872 875 876 878 879 881 883 884 885 886 887 887 888 888 889 890 891 891
816 822 825 830 835 839 845 851 855 858 861 863 866 868 870 872 873 875 877 880 881 882 883 884 885 886 887 888 888 889 890 890
812 817 821 824 829 833 839 844 848 852 857 860 863 865 868 871 871 873 875 878 879 880 881 882 884 885 886 886 886 887 887 888
804 809 814 817 823 828 831 837 840 845 851 854 859 862 865 867 869 871 873 873 876 877 879 880 881 883 884 885 885 885 885 886
798 802 808 813 817 821 824 829 833 837 843 848 853 857 860 863 866 869 871 872 873 875 876 877 878 880 882 883 883 884 884 884
794 799 802 805 808 812 816 821 825 831 837 841 846 851 854 858 861 864 868 870 871 872 873 875 876 877 879 880 880 881 881 881
785 790 794 797 801 805 809 814 819 824 831 836 840 844 847 851 855 861 862 867 867 868 869 871 872 873 875 876 877 877 878 878
780 783 787 791 796 801 806 810 814 818 824 829 833 839 843 847 851 853 857 861 864 866 866 867 869 870 871 873 874 874 875 875
775 778 783 786 788 792 798 802 807 813 818 823 829 834 838 840 843 846 852 854 859 861 862 863 865 867 868 869 870 870 871 871
772 772 773 777 781 785 789 793 801 808 813 819 823 826 830 833 836 839 843 847 852 855 857 859 860 862 864 865 866 866 866 867
771 770 772 774 776 782 788 792 797 803 808 812 817 821 825 828 831 833 837 841 844 848 851 853 855 857 859 861 862 862 862 863